Regional Weather Roundup
Issued by NWS

Home | Current Version | Previous Version | Text Only | Print | Product List | Glossary Off
Versions: 1 2 3 4 5 6 7 8 9 10 11 12 13 14 15 16 17 18 19 20 21 22 23 24 25 26 27 28 29 30 31 32 33 34 35 36 37 38 39 40 41 42 43 44 45 46 47 48 49 50

000
ASUS45 KSLC 291510
RWRUT

UTAH REGIONAL WEATHER ROUNDUP
NATIONAL WEATHER SERVICE SALT LAKE CITY UT
900 AM MDT WED JUL 29 2015

UTZ001>011-023>025-291600-

NORTHERN UTAH

CITY           SKY/WX    TMP DP  RH WIND       PRES   REMARKS
BRIGHAM CITY   SUNNY     57  38  50 N5        30.31S
HILL AFB       SUNNY     58  32  37 E18       30.31S
LOGAN          SUNNY     54  38  54 N3        30.35S
OGDEN          SUNNY     64  32  30 N3        30.30S
PROVO AIRPORT  NOT AVBL
SALT LAKE CITY SUNNY     66  34  30 CALM      30.30R
VERNAL         SUNNY     69  26  20 VRB5      30.33S
WENDOVER       SUNNY     68  30  24 S3        30.31R
HEBER CITY     SUNNY     50  30  46 CALM      30.40S
WEST JORDAN    MOSUNNY   64  30  27 CALM      30.32R

$$

UTZ012>022-026-027-291600-

SOUTHERN/CENTRAL UTAH

CITY           SKY/WX    TMP DP  RH WIND       PRES   REMARKS
BLANDING       SUNNY     73  31  21 S3        30.37R
BRYCE CANYON   SUNNY     62  29  28 NE9       30.44R
CEDAR CITY     SUNNY     64  26  23 W3        30.32R
DELTA          SUNNY     61  27  27 CALM      30.31R
HANKSVILLE     SUNNY     70  30  23 CALM      30.25S
MILFORD        SUNNY     68  21  16 N9        30.30
MOAB/CYNLANDS  SUNNY     76  27  16 CALM      30.22R
PRICE          SUNNY     73  22  14 SE5       30.32R
ST GEORGE      SUNNY     77  32  19 CALM      30.14R
KANAB          MOSUNNY   75  36  23 N9        30.29R

$$

REGIONAL REPORTS     COLORADO/ARIZONA

CITY           SKY/WX    TMP DP  RH WIND       PRES   REMARKS
CRAIG, CO      SUNNY     58  35  42 CALM      30.40R
GRAND JUNCTION SUNNY     71  33  24 SE15      30.26R
RIFLE          SUNNY     63  39  41 VRB3      30.34S
MONTROSE       MOSUNNY   69  36  29 S3        30.34S
CORTEZ         SUNNY     68  41  37 CALM      30.29S
PAGE, AZ       MOSUNNY   80  31  16 NW3       30.18R
GRAND CANYON   PTSUNNY   72  28  19 CALM      30.34R
KINGMAN        PTSUNNY   84  43  23 CALM      30.12R
FLAGSTAFF      MOSUNNY   66  55  67 SW10      30.36R

$$

REGIONAL REPORTS    NEVADA/IDAHO/WYOMING

CITY           SKY/WX    TMP DP  RH WIND       PRES   REMARKS
LAS VEGAS, NV  MOSUNNY   89  28  11 NE9       29.99R
ELY            SUNNY     56  22  26 S3        30.38R
ELKO           SUNNY     59  30  33 CALM      30.32R
POCATELLO, ID  SUNNY     56  44  64 NW3       30.36R
BURLEY         SUNNY     54  39  57 E6        30.32R
EVANSTON, WY   SUNNY     54  26  34 VRB3      30.45R
ROCK SPRINGS   SUNNY     54  26  34 CALM      30.44R
KEMMERER       SUNNY     52  30  43 N5        30.46S

$$



USA.gov is the U.S. government's official web portal to all federal, state and local government web resources and services.